Location: Ay?beleni
(36.6500°N, 30.3000°E)
Time: 09:29:16
(UTC+00:00)

Nadezhda 1 Rocket - Pass Details

Date: 15 August 2020
Orbit: 940 x 1006 km, 83.0° (Epoch: 22 September)

Event Time Altitude Azimuth Distance (km) Brightness Sun altitude
Rises 01:51:00 0° 152° (SSE) 3,720 7.0 -16.3°
Reaches altitude 10° 01:53:55 10° 141° (SE) 2,773 6.5 -15.8°
Maximum altitude 01:59:06 27° 86° (E) 1,824 6.2 -14.9°
Drops below altitude 10° 02:04:16 10° 31° (NNE) 2,770 7.4 -14.0°
Sets 02:07:10 0° 20° (NNE) 3,715 7.9 -13.5°
